QPF
0.10 0.11 0.09 0.05 0.03 0.01 0.01 0.00 0.00 0.00 0.00 0.02 0.04 0.12 0.16 0.35 0.26 0.11 0.08 0.02 0.02 0.00 0.00 0.00 0.00 0.00 0.00 0.00 0.00 0.00 0.00 0.00 0.00 0.00 0.00 0.00 0.00 0.00 0.00 0.00 0.00 0.00 0.00 0.00 0.00 0.00 0.00 0.00 0.00 0.00 0.00 0.00 0.00 0.00
0.12 0.11 0.09 0.06 0.03 0.01 0.01 0.00 0.00 0.00 0.01 0.05 0.11 0.14 0.20 0.34 0.20 0.05 0.03 0.00 0.00 0.00 0.00 0.00 0.00 0.00 0.00 0.00 0.00 0.00 0.00 0.00 0.00 0.00 0.00 0.00 0.00 0.00 0.00 0.00 0.00 0.00 0.00 0.00 0.00 0.00 0.00 0.00 0.00 0.00 0.00 0.00 0.00 0.00
0.11 0.10 0.08 0.05 0.02 0.01 0.00 0.00 0.01 0.01 0.03 0.09 0.12 0.12 0.21 0.28 0.10 0.02 0.02 0.01 0.01 0.00 0.00 0.00 0.00 0.00 0.00 0.00 0.00 0.00 0.00 0.00 0.00 0.00 0.00 0.00 0.00 0.00 0.00 0.00 0.00 0.00 0.00 0.00 0.00 0.00 0.00 0.00 0.00 0.00 0.00 0.00 0.00 0.00
0.07 0.06 0.04 0.02 0.01 0.00 0.00 0.03 0.04 0.01 0.03 0.07 0.16 0.16 0.24 0.22 0.06 0.01 0.01 0.00 0.00 0.00 0.00 0.00 0.00 0.00 0.00 0.00 0.00 0.00 0.00 0.00 0.00 0.00 0.00 0.00 0.00 0.00 0.00 0.00 0.00 0.00 0.00 0.00 0.00 0.00 0.00 0.00 0.00 0.00 0.00 0.00 0.00 0.00
0.02 0.01 0.00 0.00 0.01 0.01 0.04 0.07 0.06 0.02 0.06 0.09 0.23 0.19 0.30 0.20 0.05 0.01 0.01 0.00 0.00 0.00 0.00 0.00 0.00 0.00 0.00 0.00 0.00 0.00 0.00 0.00 0.00 0.00 0.00 0.00 0.00 0.00 0.00 0.00 0.00 0.00 0.00 0.00 0.00 0.00 0.00 0.00 0.00 0.00 0.00 0.00 0.00 0.00
0.00 0.00 0.01 0.02 0.04 0.06 0.12 0.10 0.09 0.11 0.15 0.13 0.26 0.20 0.24 0.10 0.03 0.03 0.09 0.01 0.00 0.00 0.00 0.00 0.00 0.00 0.00 0.00 0.00 0.00 0.00 0.00 0.00 0.00 0.00 0.00 0.00 0.00 0.00 0.00 0.00 0.00 0.00 0.00 0.00 0.00 0.00 0.00 0.00 0.00 0.00 0.00 0.00 0.00
0.01 0.02 0.07 0.09 0.14 0.17 0.16 0.14 0.17 0.17 0.14 0.12 0.23 0.14 0.12 0.06 0.02 0.02 0.05 0.01 0.00 0.00 0.00 0.00 0.00 0.00 0.00 0.00 0.00 0.00 0.00 0.00 0.00 0.00 0.00 0.00 0.00 0.00 0.00 0.00 0.00 0.00 0.00 0.00 0.00 0.00 0.00 0.00 0.00 0.00 0.00 0.00 0.00 0.00
0.04 0.09 0.20 0.20 0.23 0.20 0.17 0.17 0.20 0.19 0.14 0.18 0.27 0.17 0.15 0.10 0.08 0.04 0.00 0.00 0.00 0.00 0.00 0.00 0.00 0.00 0.00 0.00 0.00 0.00 0.00 0.00 0.00 0.00 0.00 0.00 0.00 0.00 0.00 0.00 0.00 0.00 0.00 0.00 0.00 0.00 0.00 0.00 0.00 0.00 0.00 0.00 0.00 0.00
0.16 0.17 0.23 0.20 0.21 0.17 0.22 0.29 0.28 0.22 0.15 0.25 0.26 0.17 0.18 0.24 0.24 0.10 0.02 0.01 0.00 0.00 0.00 0.00 0.00 0.00 0.00 0.00 0.00 0.00 0.00 0.00 0.00 0.00 0.00 0.00 0.00 0.00 0.00 0.00 0.00 0.00 0.00 0.00 0.00 0.00 0.00 0.00 0.00 0.00 0.00 0.00 0.00 0.00
0.19 0.17 0.21 0.21 0.20 0.24 0.32 0.29 0.22 0.18 0.15 0.20 0.21 0.24 0.41 0.31 0.15 0.05 0.05 0.04 0.01 0.00 0.00 0.00 0.00 0.00 0.00 0.00 0.00 0.00 0.00 0.00 0.00 0.00 0.00 0.00 0.00 0.00 0.00 0.00 0.00 0.00 0.00 0.00 0.00 0.00 0.00 0.00 0.00 0.00 0.00 0.00 0.00 0.00
0.13 0.20 0.24 0.21 0.19 0.26 0.31 0.24 0.23 0.18 0.16 0.22 0.28 0.30 0.27 0.18 0.16 0.15 0.15 0.08 0.02 0.00 0.00 0.00 0.00 0.00 0.00 0.00 0.00 0.00 0.00 0.00 0.00 0.00 0.00 0.00 0.00 0.00 0.00 0.00 0.00 0.00 0.00 0.00 0.00 0.00 0.00 0.00 0.00 0.00 0.00 0.00 0.00 0.00
0.10 0.13 0.15 0.12 0.17 0.29 0.28 0.24 0.16 0.09 0.11 0.09 0.09 0.14 0.20 0.27 0.32 0.25 0.16 0.04 0.00 0.00 0.00 0.00 0.00 0.00 0.00 0.00 0.00 0.00 0.00 0.00 0.00 0.00 0.00 0.00 0.00 0.00 0.00 0.00 0.00 0.00 0.00 0.00 0.00 0.00 0.00 0.00 0.00 0.00 0.00 0.00 0.00 0.00
0.07 0.08 0.09 0.14 0.21 0.29 0.29 0.16 0.04 0.01 0.00 0.01 0.05 0.17 0.24 0.26 0.21 0.10 0.05 0.00 0.00 0.00 0.00 0.00 0.00 0.00 0.00 0.00 0.00 0.00 0.00 0.00 0.00 0.00 0.00 0.00 0.00 0.00 0.00 0.00 0.00 0.00 0.00 0.00 0.00 0.00 0.00 0.00 0.00 0.00 0.00 0.00 0.00 0.00
0.03 0.03 0.10 0.17 0.26 0.34 0.18 0.05 0.02 0.00 0.01 0.04 0.09 0.14 0.15 0.06 0.02 0.00 0.00 0.00 0.00 0.00 0.00 0.00 0.00 0.00 0.00 0.00 0.00 0.00 0.00 0.00 0.00 0.00 0.00 0.00 0.00 0.00 0.00 0.00 0.00 0.00 0.00 0.00 0.00 0.00 0.00 0.00 0.00 0.00 0.00 0.00 0.00 0.00
0.04 0.05 0.14 0.19 0.21 0.15 0.07 0.04 0.02 0.01 0.01 0.03 0.02 0.02 0.01 0.00 0.00 0.00 0.00 0.00 0.00 0.00 0.00 0.00 0.00 0.00 0.00 0.00 0.00 0.00 0.00 0.00 0.00 0.00 0.00 0.00 0.00 0.00 0.00 0.00 0.00 0.00 0.00 0.00 0.00 0.00 0.00 0.00 0.00 0.00 0.00 0.00 0.00 0.00
0.12 0.17 0.17 0.18 0.16 0.11 0.02 0.00 0.00 0.00 0.00 0.00 0.00 0.00 0.00 0.00 0.00 0.00 0.00 0.00 0.00 0.00 0.00 0.00 0.00 0.00 0.00 0.00 0.00 0.00 0.00 0.00 0.00 0.00 0.00 0.00 0.00 0.00 0.00 0.00 0.00 0.00 0.00 0.00 0.00 0.00 0.00 0.00 0.00 0.00 0.00 0.00 0.00 0.00
0.13 0.21 0.28 0.20 0.14 0.06 0.03 0.01 0.00 0.01 0.00 0.00 0.00 0.00 0.00 0.00 0.00 0.00 0.00 0.00 0.00 0.00 0.00 0.00 0.00 0.00 0.00 0.00 0.00 0.00 0.00 0.00 0.00 0.00 0.00 0.00 0.00 0.00 0.00 0.00 0.00 0.00 0.00 0.00 0.00 0.00 0.00 0.00 0.00 0.00 0.00 0.00 0.00 0.00
0.02 0.09 0.17 0.12 0.08 0.06 0.04 0.01 0.02 0.01 0.00 0.00 0.00 0.00 0.00 0.00 0.00 0.00 0.00 0.00 0.00 0.00 0.00 0.00 0.00 0.00 0.00 0.00 0.00 0.00 0.00 0.00 0.00 0.00 0.00 0.00 0.00 0.00 0.00 0.00 0.00 0.00 0.00 0.00 0.00 0.00 0.00 0.00 0.00 0.00 0.00 0.00 0.00 0.00
0.03 0.05 0.08 0.05 0.02 0.03 0.05 0.02 0.00 0.00 0.00 0.00 0.00 0.00 0.00 0.00 0.00 0.00 0.00 0.00 0.00 0.00 0.00 0.00 0.00 0.00 0.00 0.00 0.00 0.00 0.00 0.00 0.00 0.00 0.00 0.00 0.00 0.00 0.00 0.00 0.00 0.00 0.00 0.00 0.00 0.00 0.00 0.00 0.00 0.00 0.00 0.00 0.00 0.00
0.12 0.10 0.05 0.03 0.02 0.05 0.03 0.01 0.00 0.00 0.00 0.00 0.00 0.00 0.00 0.00 0.00 0.00 0.00 0.00 0.00 0.00 0.00 0.00 0.00 0.00 0.00 0.00 0.00 0.00 0.00 0.00 0.00 0.00 0.00 0.00 0.00 0.00 0.00 0.00 0.00 0.00 0.00 0.00 0.00 0.00 0.00 0.00 0.00 0.00 0.00 0.00 0.00 0.00
0.10 0.07 0.05 0.05 0.07 0.05 0.01 0.00 0.00 0.00 0.00 0.00 0.00 0.00 0.00 0.00 0.00 0.00 0.00 0.00 0.00 0.00 0.00 0.00 0.00 0.00 0.00 0.00 0.00 0.00 0.00 0.00 0.00 0.00 0.00 0.00 0.00 0.00 0.00 0.00 0.00 0.00 0.00 0.00 0.00 0.00 0.00 0.00 0.00 0.00 0.00 0.00 0.00 0.00
0.18 0.09 0.07 0.08 0.12 0.07 0.00 0.00 0.00 0.00 0.00 0.00 0.00 0.00 0.00 0.00 0.00 0.00 0.00 0.00 0.00 0.00 0.00 0.00 0.00 0.00 0.00 0.00 0.00 0.00 0.00 0.00 0.00 0.00 0.00 0.00 0.00 0.00 0.00 0.00 0.00 0.00 0.00 0.00 0.00 0.00 0.00 0.00 0.00 0.00 0.00 0.00 0.00 0.00
0.14 0.15 0.21 0.26 0.24 0.13 0.04 0.00 0.00 0.00 0.00 0.00 0.00 0.00 0.00 0.00 0.00 0.00 0.00 0.00 0.00 0.00 0.00 0.00 0.00 0.00 0.00 0.00 0.00 0.00 0.00 0.00 0.00 0.00 0.00 0.00 0.00 0.00 0.00 0.00 0.00 0.00 0.00 0.00 0.00 0.00 0.00 0.00 0.00 0.00 0.00 0.00 0.00 0.00
0.14 0.25 0.29 0.22 0.10 0.04 0.00 0.00 0.00 0.00 0.00 0.00 0.00 0.00 0.00 0.00 0.00 0.00 0.00 0.00 0.00 0.00 0.00 0.00 0.00 0.00 0.00 0.00 0.00 0.00 0.00 0.00 0.00 0.00 0.00 0.00 0.00 0.00 0.00 0.00 0.00 0.00 0.00 0.00 0.00 0.00 0.00 0.00 0.00 0.00 0.00 0.00 0.00 0.00
0.12 0.16 0.15 0.11 0.04 0.01 0.00 0.00 0.00 0.00 0.00 0.00 0.00 0.00 0.00 0.00 0.00 0.00 0.00 0.00 0.00 0.00 0.00 0.00 0.00 0.00 0.00 0.00 0.00 0.00 0.00 0.00 0.00 0.00 0.00 0.00 0.00 0.00 0.00 0.00 0.00 0.00 0.00 0.00 0.00 0.00 0.00 0.00 0.00 0.00 0.00 0.00 0.00 0.00
0.06 0.08 0.05 0.04 0.02 0.00 0.00 0.00 0.00 0.00 0.00 0.00 0.00 0.00 0.00 0.00 0.00 0.00 0.00 0.00 0.00 0.00 0.00 0.00 0.00 0.00 0.00 0.00 0.00 0.00 0.00 0.00 0.00 0.00 0.00 0.00 0.00 0.00 0.00 0.00 0.00 0.00 0.00 0.00 0.00 0.00 0.00 0.00 0.00 0.00 0.00 0.00 0.00 0.00
0.04 0.04 0.00 0.00 0.00 0.00 0.00 0.00 0.00 0.00 0.00 0.00 0.00 0.00 0.00 0.00 0.00 0.00 0.00 0.00 0.00 0.00 0.00 0.00 0.00 0.00 0.00 0.00 0.00 0.00 0.00 0.00 0.00 0.00 0.00 0.00 0.00 0.00 0.00 0.00 0.00 0.00 0.00 0.00 0.00 0.00 0.00 0.00 0.00 0.00 0.00 0.00 0.00 0.00
0.00 0.00 0.00 0.00 0.00 0.00 0.00 0.00 0.00 0.00 0.00 0.00 0.00 0.00 0.00 0.00 0.00 0.00 0.00 0.00 0.00 0.00 0.00 0.00 0.00 0.00 0.00 0.00 0.00 0.00 0.00 0.00 0.00 0.00 0.00 0.00 0.00 0.00 0.00 0.00 0.00 0.00 0.00 0.00 0.00 0.00 0.00 0.00 0.00 0.00 0.00 0.00 0.00 0.00
0.00 0.00 0.00 0.00 0.00 0.00 0.00 0.00 0.00 0.00 0.00 0.00 0.00 0.00 0.00 0.00 0.00 0.00 0.00 0.00 0.00 0.00 0.00 0.00 0.00 0.00 0.00 0.00 0.00 0.00 0.00 0.00 0.00 0.00 0.00 0.00 0.00 0.00 0.00 0.00 0.00 0.00 0.00 0.00 0.00 0.00 0.00 0.00 0.00 0.00 0.00 0.00 0.00 0.00
0.01 0.00 0.00 0.00 0.00 0.00 0.00 0.00 0.00 0.00 0.00 0.00 0.00 0.00 0.00 0.00 0.00 0.00 0.00 0.00 0.00 0.00 0.00 0.00 0.00 0.00 0.00 0.00 0.00 0.00 0.00 0.00 0.00 0.00 0.00 0.00 0.00 0.00 0.00 0.00 0.00 0.00 0.00 0.00 0.00 0.00 0.00 0.00 0.00 0.00 0.00 0.00 0.00 0.00
0.01 0.01 0.01 0.00 0.00 0.00 0.00 0.00 0.00 0.00 0.00 0.00 0.00 0.00 0.00 0.00 0.00 0.00 0.00 0.00 0.00 0.00 0.00 0.00 0.00 0.00 0.00 0.00 0.00 0.00 0.00 0.00 0.00 0.00 0.00 0.00 0.00 0.00 0.00 0.00 0.00 0.00 0.00 0.00 0.00 0.00 0.00 0.00 0.00 0.00 0.00 0.00 0.00 0.00
0.04 0.03 0.02 0.01 0.01 0.00 0.00 0.00 0.00 0.00 0.00 0.00 0.00 0.00 0.00 0.00 0.00 0.00 0.00 0.00 0.00 0.00 0.00 0.00 0.00 0.00 0.00 0.00 0.00 0.00 0.00 0.00 0.00 0.00 0.00 0.00 0.00 0.00 0.00 0.00 0.00 0.00 0.00 0.00 0.00 0.00 0.00 0.00 0.00 0.00 0.00 0.00 0.00 0.00
0.03 0.04 0.05 0.04 0.03 0.01 0.00 0.00 0.00 0.00 0.00 0.00 0.00 0.00 0.00 0.00 0.00 0.00 0.00 0.00 0.00 0.00 0.00 0.00 0.00 0.00 0.00 0.00 0.00 0.00 0.00 0.00 0.00 0.00 0.00 0.00 0.00 0.00 0.00 0.00 0.00 0.00 0.00 0.00 0.00 0.00 0.00 0.00 0.00 0.00 0.00 0.00 0.00 0.00
MSLP
974.38 977.61 980.47 983.55 986.23 988.76 991.01 993.04 994.98 996.98 998.58 1000.30 1001.69 1002.88 1004.68 1005.56 1006.44 1005.28 1005.76 1005.78 1006.91 1006.01 1005.73 1006.80 1007.35 1008.52 1010.25 1011.89 1013.09 1015.66 1017.09 1017.66 1017.89 1018.35 1018.57 1018.24 1018.17 1018.56 1019.23 1019.64 1020.47 1021.46 1022.52 1023.04 1023.86 1023.39 1021.58 1019.68 1020.23 1020.30 1019.65 1019.79 1020.08 1020.55
976.72 978.68 981.27 983.84 986.15 988.56 990.80 992.71 994.65 996.47 998.15 999.70 1001.03 1002.33 1003.66 1004.43 1005.58 1004.56 1005.90 1005.95 1005.86 1005.05 1005.76 1007.45 1008.78 1009.43 1010.41 1011.56 1012.58 1014.83 1015.15 1016.20 1017.02 1017.71 1018.18 1018.01 1018.18 1018.46 1018.67 1018.93 1019.62 1020.60 1020.35 1020.53 1021.08 1020.39 1019.69 1018.97 1019.10 1019.47 1019.40 1019.63 1020.05 1020.41
979.21 980.71 982.54 984.61 986.72 988.86 990.93 992.92 994.78 996.68 998.21 999.86 1001.02 1002.42 1003.18 1004.83 1004.75 1004.19 1005.86 1005.56 1004.70 1005.94 1008.28 1009.19 1010.54 1010.65 1011.24 1011.82 1013.09 1013.77 1015.22 1015.60 1016.45 1016.80 1017.21 1017.62 1017.81 1018.04 1017.99 1017.86 1018.24 1018.84 1019.24 1019.02 1019.33 1018.62 1018.45 1018.59 1018.62 1018.93 1019.30 1019.49 1019.76 1020.41
981.31 982.64 984.14 985.77 987.57 989.46 991.37 993.21 995.03 996.60 998.42 999.63 1000.98 1001.98 1003.23 1004.35 1003.94 1004.38 1004.91 1004.66 1004.88 1006.41 1008.50 1011.85 1012.25 1012.10 1011.99 1012.51 1013.58 1013.63 1014.44 1015.50 1016.29 1016.68 1016.98 1017.28 1017.34 1017.26 1016.97 1016.69 1016.81 1017.25 1017.60 1017.84 1017.89 1017.77 1017.64 1017.73 1017.84 1018.25 1018.66 1019.15 1019.57 1020.03
983.50 984.48 985.76 987.16 988.61 990.12 991.76 993.47 994.81 996.14 997.43 998.95 1000.41 1001.57 1003.32 1003.97 1004.03 1004.74 1005.38 1005.37 1005.08 1006.43 1009.47 1012.07 1012.60 1012.83 1012.95 1013.35 1013.78 1014.12 1014.86 1015.54 1016.35 1016.76 1016.89 1016.98 1016.82 1017.11 1016.98 1016.64 1015.82 1015.65 1015.65 1016.31 1016.37 1016.39 1016.51 1016.65 1016.82 1017.50 1018.15 1018.57 1019.22 1019.86
985.51 986.26 987.22 988.26 989.11 990.35 991.71 993.01 994.60 996.10 997.34 998.89 1000.12 1002.04 1003.18 1003.47 1003.92 1005.16 1007.34 1007.44 1006.68 1006.95 1009.54 1012.15 1013.77 1013.92 1014.05 1014.24 1014.41 1014.89 1015.36 1015.71 1015.97 1016.19 1016.67 1016.73 1017.19 1017.24 1016.68 1016.04 1015.07 1014.54 1014.63 1014.80 1015.32 1015.42 1015.85 1016.12 1016.72 1017.05 1017.63 1018.11 1018.71 1019.55
986.37 987.11 988.01 988.75 989.64 990.57 991.59 993.21 994.51 995.18 997.09 998.84 1000.83 1002.28 1003.10 1003.74 1004.99 1005.68 1007.37 1006.68 1006.66 1006.67 1009.17 1011.98 1013.72 1014.44 1014.50 1014.71 1014.96 1015.35 1015.71 1015.81 1015.99 1016.28 1016.43 1016.61 1017.30 1017.79 1016.84 1015.36 1014.12 1013.70 1013.67 1013.95 1014.54 1015.05 1015.46 1016.02 1016.43 1017.04 1017.28 1017.57 1018.16 1018.86
987.05 987.49 987.93 988.89 990.00 990.09 991.03 992.58 994.10 995.55 996.76 999.50 1001.54 1003.03 1003.97 1004.62 1005.70 1006.41 1007.51 1007.24 1006.79 1006.07 1008.06 1011.10 1013.98 1014.62 1014.82 1014.90 1015.21 1015.74 1015.88 1016.28 1016.59 1016.56 1016.82 1016.87 1017.40 1017.37 1016.32 1014.80 1014.22 1013.61 1013.37 1013.48 1013.71 1014.41 1014.93 1015.48 1016.18 1016.69 1017.21 1017.50 1017.97 1018.73
987.77 988.25 988.31 988.80 989.41 990.21 991.28 992.68 994.42 996.35 998.36 1000.18 1001.53 1002.53 1003.98 1006.39 1007.71 1008.36 1007.71 1005.99 1005.72 1006.68 1008.40 1010.28 1012.03 1013.55 1014.62 1014.71 1015.35 1015.85 1016.14 1016.69 1016.91 1016.93 1016.69 1017.02 1016.50 1015.54 1014.74 1014.20 1013.47 1013.01 1012.91 1013.08 1013.74 1014.21 1014.79 1015.37 1015.85 1016.33 1016.83 1017.45 1018.01 1018.57
988.07 987.95 989.08 989.63 990.74 991.97 993.11 994.18 996.07 997.15 998.65 1000.26 1001.48 1003.79 1006.86 1007.98 1008.11 1007.62 1007.58 1007.73 1007.57 1007.83 1008.12 1009.29 1010.21 1012.11 1013.20 1014.06 1015.26 1016.17 1016.52 1016.65 1016.87 1016.59 1016.48 1015.94 1014.84 1014.03 1013.73 1013.34 1012.80 1012.54 1012.29 1012.59 1013.00 1013.78 1014.47 1015.03 1015.65 1016.09 1016.51 1017.28 1017.95 1018.77
988.86 989.15 989.67 990.15 991.31 992.48 993.83 994.79 996.28 997.67 998.49 1000.17 1003.50 1006.08 1007.51 1007.95 1008.03 1008.84 1010.00 1009.81 1009.08 1008.23 1008.13 1009.24 1010.24 1010.77 1013.02 1013.66 1014.78 1015.97 1016.43 1016.57 1016.60 1016.17 1016.30 1015.29 1013.35 1012.27 1011.90 1011.79 1011.92 1012.10 1011.96 1012.12 1013.01 1013.36 1014.08 1014.81 1015.45 1016.07 1016.52 1017.32 1018.10 1018.91
989.67 990.45 991.37 992.33 993.09 994.22 995.18 995.93 996.94 997.80 999.45 1001.06 1003.33 1006.55 1008.03 1008.05 1008.54 1009.15 1009.18 1008.80 1007.76 1007.83 1008.23 1009.39 1010.33 1011.36 1012.63 1013.83 1014.95 1016.34 1016.34 1016.78 1016.60 1016.86 1016.61 1014.96 1011.98 1011.03 1010.66 1010.77 1011.12 1011.56 1011.79 1012.28 1012.92 1013.56 1014.09 1014.81 1015.46 1016.16 1016.78 1017.67 1018.54 1019.36
991.15 991.71 992.56 993.45 994.18 995.06 995.90 996.72 997.74 999.42 999.63 1001.40 1003.63 1006.10 1006.99 1008.50 1008.04 1007.56 1007.21 1006.81 1006.69 1007.03 1007.94 1008.77 1010.57 1011.64 1013.33 1014.10 1015.46 1016.08 1016.39 1016.89 1016.81 1016.91 1015.53 1012.91 1011.21 1010.45 1010.30 1010.48 1010.84 1010.95 1011.32 1012.03 1012.94 1013.61 1014.24 1015.04 1015.75 1016.49 1017.31 1018.07 1019.04 1020.25
992.48 993.10 993.78 994.62 995.41 996.21 996.84 997.55 998.05 998.52 999.25 1001.48 1003.98 1005.61 1006.06 1006.52 1005.05 1003.85 1003.89 1004.74 1005.22 1006.24 1007.70 1009.00 1010.31 1011.91 1013.36 1014.60 1015.70 1016.26 1016.45 1016.68 1016.47 1015.46 1013.04 1011.42 1010.91 1010.65 1010.88 1011.14 1011.15 1011.47 1011.64 1011.98 1012.92 1013.72 1014.53 1015.43 1016.32 1017.16 1018.09 1018.79 1020.06 1021.38
993.91 994.53 995.22 996.27 997.09 997.60 998.19 998.75 998.95 998.97 999.96 1001.60 1002.59 1004.34 1004.68 1003.81 1003.17 1003.15 1003.67 1004.66 1005.46 1006.44 1007.78 1009.27 1010.71 1012.00 1013.48 1014.90 1015.13 1015.68 1016.05 1015.45 1014.30 1012.51 1011.38 1010.84 1010.42 1010.52 1011.16 1011.55 1011.61 1011.86 1012.15 1012.38 1013.15 1013.97 1015.17 1016.20 1017.21 1018.07 1018.79 1019.49 1020.60 1021.97
995.47 996.21 996.88 997.54 998.25 999.07 999.31 999.15 999.31 999.86 1001.27 1001.90 1003.02 1003.70 1003.88 1004.06 1004.27 1004.66 1005.00 1005.15 1006.00 1006.66 1007.67 1008.82 1010.48 1011.91 1013.03 1013.57 1013.97 1014.26 1014.31 1012.89 1011.66 1011.03 1010.66 1010.51 1010.73 1010.95 1011.11 1011.62 1011.95 1012.17 1012.44 1012.76 1013.51 1014.57 1015.65 1016.74 1017.73 1018.57 1019.41 1020.31 1021.46 1022.17
996.75 997.38 998.28 998.74 999.42 999.86 1000.10 1000.56 1001.09 1002.39 1002.55 1003.17 1004.01 1003.66 1003.96 1004.57 1005.15 1005.20 1005.07 1005.29 1005.85 1006.29 1007.31 1008.49 1009.78 1010.95 1011.75 1012.27 1012.50 1012.46 1011.52 1010.71 1010.44 1010.58 1010.55 1010.59 1010.71 1011.33 1011.60 1011.83 1012.24 1012.53 1012.86 1013.17 1013.79 1014.85 1015.95 1017.09 1017.79 1018.76 1019.57 1020.72 1021.50 1022.18
997.78 998.79 999.07 999.63 1000.04 1000.78 1001.78 1002.22 1003.27 1003.60 1003.76 1004.13 1004.53 1004.80 1004.80 1004.95 1005.34 1005.70 1005.89 1005.92 1006.02 1006.08 1007.00 1007.59 1008.30 1009.33 1010.20 1010.53 1010.31 1010.00 1010.27 1010.49 1010.62 1010.79 1011.02 1011.06 1011.21 1011.59 1011.94 1012.15 1012.62 1013.01 1013.23 1013.53 1014.13 1015.04 1015.98 1016.84 1017.44 1018.36 1019.06 1019.94 1020.71 1021.56
999.01 999.77 1000.35 1000.70 1000.86 1002.08 1003.88 1004.29 1003.50 1003.98 1004.82 1004.99 1005.15 1005.10 1005.45 1005.78 1006.10 1006.18 1005.95 1006.30 1006.17 1006.50 1007.21 1007.33 1007.71 1008.18 1008.62 1008.75 1008.77 1009.20 1009.80 1010.14 1010.68 1011.20 1011.32 1011.40 1011.58 1012.03 1012.34 1012.58 1012.92 1013.11 1013.45 1013.95 1014.46 1015.18 1015.95 1016.34 1017.02 1017.66 1018.31 1019.06 1019.90 1020.47
999.81 1000.65 1001.02 1001.15 1001.11 1003.38 1004.86 1005.28 1004.30 1004.32 1005.16 1005.66 1005.74 1006.05 1006.30 1006.57 1006.79 1006.83 1006.69 1006.78 1006.72 1007.13 1007.41 1007.27 1007.48 1007.79 1007.84 1008.22 1008.61 1009.16 1009.58 1010.01 1010.65 1011.28 1011.53 1011.78 1011.97 1012.31 1012.52 1012.84 1012.99 1013.24 1013.66 1014.31 1014.93 1015.59 1016.08 1016.45 1016.75 1017.36 1018.01 1018.62 1019.32 1019.97
1000.34 1001.88 1002.11 1002.35 1004.01 1004.33 1004.82 1005.05 1004.86 1005.28 1005.62 1005.86 1005.84 1006.25 1007.11 1007.47 1007.55 1007.45 1007.30 1007.19 1007.22 1007.25 1007.24 1007.47 1007.82 1008.11 1008.17 1008.31 1009.13 1009.53 1009.81 1010.08 1010.56 1010.96 1011.33 1011.88 1012.15 1012.46 1012.68 1012.95 1013.17 1013.46 1014.01 1014.62 1015.26 1015.88 1016.11 1016.51 1016.84 1017.29 1017.92 1018.62 1019.21 1019.78
1002.77 1002.92 1003.41 1004.12 1005.44 1005.84 1005.26 1004.77 1004.82 1005.21 1005.53 1005.69 1006.09 1006.39 1007.24 1007.60 1007.55 1007.68 1007.74 1007.68 1007.36 1007.39 1007.67 1007.60 1008.06 1008.33 1008.72 1009.18 1009.53 1009.71 1009.91 1010.11 1010.52 1011.02 1011.18 1011.75 1012.27 1012.57 1012.79 1013.05 1013.37 1013.75 1014.21 1014.77 1015.33 1015.89 1016.36 1016.59 1017.03 1017.59 1018.16 1018.71 1019.20 1019.80
1002.86 1003.42 1004.83 1005.74 1006.40 1006.86 1007.26 1006.27 1005.67 1005.80 1006.02 1006.05 1006.08 1006.50 1007.09 1007.39 1007.52 1007.82 1008.20 1007.98 1007.67 1007.65 1007.93 1008.01 1008.15 1008.46 1008.77 1009.26 1009.63 1009.66 1009.86 1010.09 1010.66 1010.91 1011.30 1011.72 1012.19 1012.48 1012.76 1013.09 1013.45 1013.84 1014.39 1014.88 1015.19 1015.78 1016.41 1016.75 1017.17 1017.83 1018.55 1019.08 1019.42 1020.00
1003.88 1005.00 1005.81 1006.26 1006.59 1007.12 1006.98 1006.22 1005.62 1005.65 1005.85 1006.16 1006.48 1006.78 1007.21 1007.71 1008.02 1008.18 1007.79 1007.26 1007.27 1007.66 1007.99 1008.07 1008.29 1008.62 1008.91 1009.32 1009.51 1009.60 1009.74 1010.07 1010.48 1010.83 1011.18 1011.60 1012.09 1012.37 1012.57 1012.99 1013.37 1013.70 1014.09 1014.46 1014.95 1015.46 1016.07 1016.80 1017.30 1018.03 1018.62 1019.04 1019.42 1019.99
1004.91 1006.30 1006.15 1006.59 1006.84 1006.79 1006.64 1006.13 1005.81 1006.11 1006.40 1006.47 1006.71 1007.07 1007.54 1008.17 1008.15 1007.75 1007.02 1006.68 1007.09 1007.52 1007.83 1008.13 1008.42 1008.59 1008.96 1009.02 1009.21 1009.28 1009.61 1009.86 1010.09 1010.52 1011.06 1011.28 1011.80 1012.36 1012.69 1012.96 1013.20 1013.50 1013.93 1014.45 1015.01 1015.78 1016.30 1016.82 1017.42 1017.95 1018.60 1019.03 1019.35 1019.77
1005.47 1006.22 1006.02 1005.57 1005.78 1005.58 1005.71 1005.92 1006.10 1006.23 1006.31 1006.80 1007.13 1007.34 1007.76 1007.94 1007.87 1007.16 1006.37 1006.41 1006.94 1007.16 1007.58 1007.78 1007.92 1008.24 1008.39 1008.34 1008.39 1008.63 1009.03 1009.63 1009.98 1010.21 1010.56 1011.00 1011.32 1011.87 1012.40 1012.81 1013.16 1013.37 1013.52 1014.09 1015.05 1015.88 1016.36 1016.70 1017.33 1017.89 1018.31 1018.62 1019.04 1019.44
1005.47 1005.66 1005.28 1004.74 1004.81 1004.77 1005.17 1005.51 1005.61 1005.73 1006.22 1006.47 1006.69 1007.38 1007.56 1007.41 1006.80 1006.32 1006.10 1006.07 1006.40 1006.46 1006.84 1007.29 1007.56 1007.73 1007.69 1007.74 1007.94 1008.18 1008.70 1009.30 1009.67 1009.83 1010.05 1010.51 1010.81 1011.04 1011.53 1012.05 1012.45 1012.68 1013.03 1013.75 1014.65 1015.27 1015.83 1016.30 1016.83 1017.30 1017.62 1018.02 1018.30 1018.64
1005.33 1005.11 1005.07 1004.99 1004.82 1004.98 1005.21 1005.28 1005.42 1005.43 1005.34 1005.51 1006.32 1006.55 1006.40 1005.96 1005.59 1005.62 1005.75 1005.72 1006.07 1006.53 1006.80 1007.07 1007.45 1007.66 1007.69 1007.65 1007.84 1008.30 1008.87 1009.22 1009.79 1010.30 1010.54 1010.74 1010.83 1010.96 1011.27 1011.56 1011.72 1011.96 1012.48 1013.19 1013.94 1014.66 1015.22 1015.58 1015.97 1016.46 1016.82 1017.15 1017.42 1017.76
1004.92 1004.85 1005.09 1005.21 1005.33 1005.30 1005.44 1005.34 1005.11 1004.83 1004.66 1005.00 1005.36 1005.48 1005.51 1005.26 1005.09 1005.40 1006.03 1006.33 1006.59 1007.01 1007.47 1007.72 1007.84 1007.80 1007.83 1007.85 1008.08 1008.37 1008.86 1009.32 1009.92 1010.48 1010.74 1011.01 1011.45 1011.27 1011.28 1011.61 1011.87 1012.19 1012.62 1013.18 1013.64 1014.03 1014.43 1014.86 1015.18 1015.64 1016.01 1016.48 1016.80 1017.18
1004.60 1004.56 1004.98 1005.33 1005.34 1005.20 1005.19 1005.07 1005.08 1004.88 1004.88 1004.83 1005.12 1005.13 1005.21 1005.40 1005.58 1005.80 1006.25 1006.60 1006.98 1007.45 1007.84 1008.18 1008.34 1008.38 1008.48 1008.71 1009.03 1009.18 1009.17 1009.08 1009.03 1009.71 1010.09 1010.44 1010.59 1010.68 1011.06 1011.50 1011.93 1012.22 1012.68 1013.17 1013.62 1014.12 1014.56 1014.81 1015.09 1015.45 1015.80 1016.14 1016.45 1016.75
1004.39 1004.55 1004.81 1005.08 1005.15 1005.12 1005.30 1005.44 1005.55 1005.48 1005.37 1005.57 1005.84 1005.85 1006.02 1005.83 1005.80 1005.90 1006.16 1006.40 1007.16 1007.87 1008.17 1008.39 1008.54 1008.59 1008.69 1008.87 1009.12 1009.37 1009.41 1009.24 1009.28 1009.53 1009.78 1010.16 1010.34 1010.68 1010.89 1011.20 1011.65 1012.10 1012.54 1012.99 1013.37 1013.71 1014.12 1014.42 1014.64 1014.93 1015.29 1015.53 1015.83 1016.13
1004.74 1004.53 1004.69 1004.81 1005.09 1005.59 1005.78 1005.85 1005.85 1005.79 1005.99 1006.24 1006.41 1006.55 1006.71 1006.78 1006.39 1005.76 1005.89 1006.68 1007.34 1007.72 1007.73 1007.97 1008.14 1007.98 1007.94 1008.18 1008.47 1008.54 1008.28 1008.32 1008.72 1009.15 1009.60 1009.99 1010.29 1010.48 1010.66 1011.10 1011.63 1011.94 1012.25 1012.66 1013.03 1013.35 1013.61 1013.81 1014.04 1014.29 1014.53 1014.83 1015.23 1015.65
1005.70 1005.04 1004.78 1004.98 1005.07 1005.41 1005.63 1005.77 1005.69 1005.72 1005.86 1005.91 1006.03 1006.16 1006.24 1006.23 1005.88 1005.45 1005.65 1005.85 1006.14 1006.29 1006.60 1006.74 1006.76 1006.95 1007.18 1007.41 1007.50 1007.62 1007.79 1007.98 1008.23 1008.61 1008.96 1009.31 1009.65 1010.09 1010.50 1010.86 1011.28 1011.63 1011.98 1012.30 1012.56 1012.87 1013.19 1013.37 1013.52 1013.83 1014.07 1014.33 1014.74 1015.17
Thickness
5428 5417 5411 5414 5419 5420 5419 5419 5420 5421 5432 5442 5454 5464 5475 5485 5497 5527 5540 5554 5558 5575 5590 5595 5601 5590 5590 5586 5581 5572 5562 5564 5569 5563 5567 5576 5579 5576 5570 5572 5561 5552 5542 5539 5534 5534 5539 5581 5569 5557 5569 5568 5563 5554
5413 5409 5405 5411 5416 5416 5416 5416 5416 5424 5435 5446 5461 5473 5484 5496 5503 5532 5535 5551 5565 5580 5587 5592 5586 5592 5593 5594 5593 5576 5578 5573 5571 5568 5568 5576 5572 5571 5569 5560 5571 5551 5563 5561 5557 5559 5575 5584 5575 5572 5573 5565 5559 5553
5403 5403 5406 5409 5411 5413 5410 5411 5409 5418 5434 5444 5462 5473 5486 5489 5509 5532 5532 5546 5565 5568 5561 5564 5559 5572 5578 5583 5584 5574 5571 5578 5576 5580 5576 5575 5569 5572 5563 5570 5570 5570 5573 5570 5569 5580 5581 5579 5578 5574 5569 5563 5560 5552
5399 5400 5403 5405 5407 5406 5404 5404 5404 5421 5434 5452 5463 5478 5487 5496 5517 5528 5539 5559 5570 5566 5552 5535 5548 5558 5575 5582 5576 5582 5580 5578 5576 5577 5574 5572 5569 5579 5576 5582 5578 5577 5578 5574 5574 5579 5582 5580 5579 5575 5570 5564 5557 5551
5397 5398 5398 5399 5400 5401 5401 5399 5415 5434 5452 5464 5476 5484 5490 5499 5516 5526 5536 5552 5570 5568 5545 5536 5543 5552 5564 5567 5569 5577 5575 5572 5568 5567 5568 5567 5577 5572 5574 5575 5581 5590 5586 5573 5572 5586 5583 5583 5584 5578 5568 5563 5556 5548
5391 5392 5392 5393 5397 5399 5401 5416 5432 5447 5463 5472 5482 5486 5490 5508 5520 5525 5512 5530 5551 5564 5545 5531 5532 5542 5549 5557 5563 5564 5565 5567 5570 5570 5567 5571 5569 5568 5569 5567 5585 5594 5596 5596 5587 5593 5589 5587 5581 5578 5568 5563 5557 5548
5396 5395 5393 5395 5402 5405 5414 5434 5442 5462 5469 5479 5481 5490 5498 5510 5515 5525 5520 5543 5551 5564 5546 5531 5528 5534 5545 5551 5554 5556 5560 5563 5565 5565 5566 5568 5563 5557 5563 5570 5591 5596 5599 5599 5596 5591 5584 5581 5575 5572 5569 5565 5557 5550
5403 5408 5413 5414 5414 5430 5443 5458 5465 5473 5485 5482 5482 5484 5494 5502 5508 5513 5520 5535 5548 5564 5558 5535 5516 5529 5541 5542 5545 5551 5552 5554 5555 5558 5560 5560 5556 5556 5558 5578 5584 5591 5596 5597 5597 5592 5587 5584 5577 5571 5566 5561 5554 5545
5408 5412 5423 5429 5439 5444 5454 5462 5466 5470 5475 5479 5486 5494 5496 5486 5487 5495 5515 5541 5556 5560 5547 5540 5533 5529 5538 5544 5544 5545 5549 5542 5550 5547 5555 5554 5557 5562 5573 5576 5584 5592 5593 5593 5589 5588 5583 5577 5573 5568 5564 5556 5548 5542
5424 5432 5431 5436 5443 5450 5458 5466 5466 5475 5483 5484 5490 5479 5464 5476 5490 5509 5519 5523 5535 5544 5553 5550 5558 5544 5549 5547 5541 5539 5541 5541 5538 5548 5555 5556 5566 5580 5582 5582 5585 5592 5597 5596 5589 5581 5577 5573 5568 5565 5561 5553 5546 5537
5428 5437 5445 5457 5460 5465 5468 5474 5474 5477 5486 5480 5464 5461 5470 5482 5495 5494 5487 5495 5516 5535 5551 5552 5554 5555 5546 5544 5540 5537 5535 5540 5537 5550 5547 5556 5575 5581 5584 5585 5586 5589 5595 5596 5587 5585 5580 5573 5567 5560 5556 5549 5541 5534
5437 5442 5445 5449 5456 5459 5466 5473 5478 5483 5481 5485 5482 5470 5469 5480 5484 5479 5481 5507 5532 5536 5546 5545 5548 5548 5543 5542 5536 5530 5534 5534 5534 5542 5538 5546 5580 5587 5591 5588 5587 5588 5590 5587 5583 5578 5575 5570 5564 5557 5551 5542 5535 5528
5444 5449 5452 5455 5462 5464 5467 5474 5479 5480 5491 5490 5484 5474 5478 5464 5476 5485 5494 5528 5533 5545 5548 5548 5538 5540 5535 5538 5529 5529 5526 5520 5537 5526 5535 5564 5582 5590 5588 5587 5584 5589 5589 5584 5577 5574 5570 5564 5559 5552 5544 5536 5526 5513
5443 5448 5451 5456 5459 5463 5470 5475 5482 5489 5496 5490 5477 5471 5479 5473 5512 5547 5557 5553 5556 5555 5550 5546 5543 5536 5533 5526 5521 5511 5526 5527 5521 5529 5555 5571 5577 5579 5578 5576 5578 5577 5580 5580 5572 5568 5562 5555 5547 5539 5526 5517 5507 5497
5442 5447 5448 5451 5453 5459 5465 5471 5480 5491 5493 5487 5491 5479 5498 5529 5547 5554 5554 5549 5552 5552 5547 5539 5537 5535 5525 5503 5524 5522 5516 5522 5540 5555 5565 5572 5576 5574 5569 5567 5569 5570 5567 5570 5566 5560 5540 5532 5524 5519 5515 5511 5500 5483
5439 5441 5447 5449 5451 5454 5461 5475 5485 5494 5492 5500 5503 5504 5519 5524 5522 5529 5536 5541 5544 5545 5544 5543 5533 5526 5519 5523 5525 5513 5525 5540 5553 5563 5568 5571 5565 5563 5564 5560 5561 5561 5562 5561 5557 5547 5537 5518 5515 5514 5506 5497 5480 5476
5440 5442 5441 5447 5451 5455 5462 5468 5476 5469 5486 5491 5486 5508 5514 5513 5510 5525 5535 5540 5545 5547 5540 5539 5520 5524 5533 5531 5531 5539 5550 5558 5565 5563 5564 5563 5561 5556 5555 5555 5551 5552 5551 5551 5548 5539 5529 5519 5515 5505 5497 5486 5479 5471
5440 5439 5444 5447 5454 5456 5456 5458 5457 5467 5475 5483 5481 5495 5506 5511 5513 5519 5527 5534 5538 5544 5542 5541 5546 5540 5529 5539 5546 5554 5552 5555 5554 5554 5553 5553 5552 5550 5548 5547 5544 5541 5542 5541 5538 5531 5522 5515 5510 5500 5497 5487 5481 5473
5436 5438 5440 5445 5453 5450 5438 5442 5463 5464 5465 5472 5481 5491 5495 5499 5507 5514 5525 5526 5533 5537 5535 5541 5543 5545 5545 5551 5554 5553 5550 5550 5546 5544 5544 5545 5545 5541 5538 5537 5535 5534 5533 5530 5527 5521 5515 5513 5506 5501 5496 5490 5481 5476
5435 5433 5438 5444 5452 5438 5433 5436 5457 5466 5461 5466 5476 5478 5485 5490 5497 5502 5511 5516 5524 5525 5525 5535 5540 5545 5548 5547 5548 5546 5545 5545 5541 5535 5534 5534 5535 5532 5530 5527 5528 5528 5525 5520 5515 5507 5507 5505 5503 5497 5491 5485 5479 5473
5436 5430 5432 5435 5429 5437 5445 5448 5455 5457 5459 5463 5475 5475 5473 5478 5482 5490 5499 5510 5514 5519 5525 5530 5532 5532 5537 5540 5535 5535 5535 5536 5534 5533 5531 5524 5525 5524 5522 5521 5520 5518 5512 5508 5502 5497 5494 5495 5494 5489 5481 5476 5473 5469
5415 5422 5426 5424 5415 5419 5436 5448 5452 5457 5461 5465 5467 5471 5465 5467 5475 5483 5492 5497 5508 5515 5517 5522 5521 5523 5522 5522 5523 5526 5528 5529 5529 5522 5522 5514 5516 5513 5511 5511 5508 5504 5501 5498 5494 5489 5487 5487 5483 5478 5471 5463 5463 5460
5415 5416 5408 5405 5408 5407 5406 5426 5435 5443 5443 5454 5465 5463 5463 5467 5473 5479 5474 5487 5498 5505 5506 5511 5514 5516 5517 5516 5515 5519 5521 5522 5518 5518 5515 5514 5510 5507 5504 5502 5499 5495 5491 5488 5487 5483 5478 5475 5468 5462 5457 5454 5452 5444
5402 5399 5401 5401 5404 5400 5410 5420 5438 5442 5448 5451 5454 5455 5459 5460 5465 5465 5473 5490 5496 5496 5496 5502 5505 5505 5507 5506 5506 5509 5511 5512 5511 5510 5508 5506 5502 5500 5499 5494 5490 5489 5486 5484 5481 5478 5472 5462 5458 5456 5447 5443 5440 5434
5394 5382 5390 5389 5394 5401 5406 5419 5430 5430 5429 5439 5444 5445 5447 5450 5451 5461 5476 5491 5489 5489 5490 5491 5491 5495 5495 5498 5500 5503 5503 5503 5505 5503 5499 5499 5496 5492 5489 5486 5483 5481 5478 5473 5468 5461 5457 5453 5449 5445 5438 5433 5429 5425
5380 5372 5386 5391 5396 5406 5412 5410 5412 5418 5427 5426 5429 5439 5440 5441 5442 5453 5475 5479 5481 5483 5476 5480 5484 5486 5490 5495 5499 5499 5498 5494 5494 5495 5494 5491 5489 5484 5480 5477 5474 5472 5470 5467 5457 5450 5447 5445 5440 5434 5430 5425 5421 5417
5371 5375 5388 5403 5406 5414 5412 5413 5421 5420 5413 5416 5426 5422 5425 5429 5440 5456 5468 5471 5474 5477 5477 5477 5479 5481 5486 5489 5491 5492 5491 5487 5486 5487 5486 5483 5481 5481 5477 5472 5469 5468 5464 5458 5449 5444 5441 5438 5432 5427 5424 5419 5415 5411
5368 5377 5378 5388 5395 5401 5398 5406 5407 5409 5417 5426 5421 5416 5425 5436 5449 5456 5458 5461 5462 5462 5466 5468 5468 5471 5475 5479 5481 5478 5476 5474 5469 5467 5467 5467 5468 5467 5465 5464 5462 5459 5457 5450 5444 5438 5433 5430 5428 5422 5418 5414 5411 5406
5359 5368 5370 5368 5372 5382 5384 5390 5398 5410 5419 5417 5412 5418 5424 5437 5442 5441 5437 5439 5443 5446 5450 5452 5454 5458 5462 5465 5464 5465 5462 5460 5458 5449 5447 5448 5447 5451 5451 5450 5449 5446 5443 5437 5431 5428 5425 5421 5420 5415 5411 5406 5402 5398
5347 5355 5352 5352 5356 5365 5375 5383 5388 5396 5401 5404 5407 5415 5419 5417 5420 5423 5422 5425 5429 5427 5430 5432 5436 5436 5438 5439 5439 5441 5441 5445 5449 5447 5447 5444 5444 5442 5439 5436 5434 5431 5427 5422 5418 5413 5408 5407 5405 5402 5399 5395 5391 5387
5334 5336 5338 5341 5346 5356 5356 5355 5355 5363 5370 5371 5371 5381 5391 5399 5405 5409 5412 5415 5412 5409 5412 5415 5418 5421 5424 5424 5423 5424 5428 5431 5432 5432 5432 5430 5429 5428 5427 5424 5420 5416 5412 5407 5404 5402 5399 5397 5395 5392 5388 5385 5381 5378
5314 5320 5323 5327 5333 5328 5326 5329 5334 5342 5345 5347 5354 5356 5361 5364 5372 5397 5398 5394 5393 5395 5400 5402 5405 5410 5412 5414 5415 5417 5423 5426 5423 5421 5418 5415 5414 5413 5413 5409 5404 5402 5400 5396 5393 5391 5388 5387 5385 5382 5379 5376 5371 5366
5286 5301 5309 5311 5312 5311 5314 5317 5323 5326 5328 5337 5342 5348 5350 5361 5374 5380 5383 5386 5388 5391 5393 5395 5398 5399 5400 5403 5406 5408 5410 5411 5410 5408 5407 5405 5403 5401 5398 5396 5392 5390 5387 5385 5383 5380 5377 5376 5374 5370 5367 5364 5359 5354